#timestamp,LO_Frequency,Hit,StdDev 
1607477735.6,286047007.1,P
1607477755.4,286047006.8,P
1607477775.3,286047005.5,P
1607477795.1,286047003.0,Y
1607477796.0,286047003.0,P
1607477815.8,286046996.8,N
1607477835.7,286046999.2,N
1607477855.5,286047000.6,N
1607477875.3,286046998.1,N
1607477895.2,286047000.0,N
1607477915.0,286047000.4,N
1607477915.9,286047000.4,N
1607477935.8,286047001.4,N
1607477955.6,286046999.9,N
1607477975.4,286047000.2,N
1607477995.3,286047000.4,N
1607478015.1,286047000.6,N
1607478035.8,286047000.2,N
1607478055.7,286047002.5,N
1607478075.5,286047000.9,N
1607478095.4,286047002.3,N
1607478115.2,286047002.5,N
1607478135.0,286046999.7,N
1607478135.9,286046999.7,N
1607478155.8,286047002.5,N
1607478175.6,286047003.7,N
1607478195.4,286047002.6,N
1607478215.3,286047001.6,N
1607478235.1,286047000.7,N
1607478255.9,286046998.1,N
1607478275.7,286046998.1,N
1607478295.5,286047001.1,N
1607478315.4,286046999.9,N
1607478335.2,286046998.5,N
1607478355.0,286046997.3,N
1607478356.0,286046997.3,N
1607478375.8,286046997.1,N
1607478395.6,286046994.9,Y
1607478415.5,286046997.3,P
1607478435.3,286046996.9,N
1607478455.1,286047000.4,N
1607478475.9,286047000.6,N
1607478495.7,286047001.0,N
1607478515.6,286047002.6,N
1607478535.4,286047004.0,N
1607478555.2,286047000.7,N
1607478575.1,286047000.7,N
1607478576.0,286047000.7,N
1607478595.8,286047001.7,N
1607478615.6,286047001.8,N
1607478635.5,286047003.3,N
1607478655.3,286047004.8,N
1607478675.2,286047003.2,N
1607478695.9,286047002.9,N
1607478715.7,286047003.0,N
1607478735.6,286047003.0,N
1607478755.4,286047004.4,N
1607478775.2,286047001.5,N
1607478795.1,286047001.9,N
1607478796.0,286047001.9,N
1607478815.8,286047001.7,N
1607478835.6,286046999.8,N
1607478855.5,286047000.4,N
1607478875.3,286047000.6,N
1607478895.2,286047001.7,N
1607478915.9,286047001.3,N
1607478935.7,286047001.8,N
1607478955.6,286047001.5,N
1607478975.4,286046998.6,N
1607478995.2,286046999.6,N
1607479015.1,286046998.6,N
1607479016.0,286046998.6,N
1607479035.8,286046999.2,N
1607479055.7,286046996.9,N
1607479075.5,286046997.2,N
1607479095.3,286046999.5,N
1607479115.2,286046999.3,N
1607479135.0,286047000.1,N
1607479135.9,286047000.1,N
1607479155.8,286046999.7,N
1607479175.6,286047001.9,N
1607479195.4,286047003.6,N
